TimeEST,TemperatureF,Dew PointF,Humidity,Sea Level PressureIn,VisibilityMPH,Wind Direction,Wind SpeedMPH,Gust SpeedMPH,PrecipitationIn,Events,Conditions,WindDirDegrees,DateUTC
12:53 AM,61.0,53.1,75,29.91,10.0,SSE,9.2,-,N/A,,Partly Cloudy,150,2013-01-13 05:53:00
1:53 AM,62.1,53.1,72,29.89,10.0,South,15.0,19.6,N/A,,Partly Cloudy,170,2013-01-13 06:53:00
2:53 AM,63.0,54.0,72,29.88,10.0,South,11.5,-,N/A,,Clear,170,2013-01-13 07:53:00
3:53 AM,61.0,54.0,78,29.86,10.0,South,4.6,-,N/A,,Clear,190,2013-01-13 08:53:00
4:53 AM,61.0,54.0,78,29.85,10.0,South,10.4,-,N/A,,Partly Cloudy,180,2013-01-13 09:53:00
5:53 AM,62.1,53.1,72,29.87,10.0,SSW,15.0,-,N/A,,Clear,200,2013-01-13 10:53:00
6:53 AM,62.1,53.1,72,29.86,10.0,South,16.1,23.0,N/A,,Scattered Clouds,180,2013-01-13 11:53:00
7:53 AM,63.0,53.1,70,29.90,10.0,SSW,18.4,26.5,N/A,,Overcast,200,2013-01-13 12:53:00
8:53 AM,64.0,53.1,67,29.94,10.0,SW,13.8,27.6,N/A,,Overcast,220,2013-01-13 13:53:00
9:53 AM,64.9,53.1,65,29.94,10.0,SW,18.4,29.9,N/A,,Overcast,230,2013-01-13 14:53:00
10:53 AM,64.0,54.0,70,29.93,10.0,SSW,15.0,19.6,N/A,,Overcast,200,2013-01-13 15:53:00
11:53 AM,66.0,55.0,68,29.91,10.0,South,12.7,-,N/A,,Scattered Clouds,180,2013-01-13 16:53:00
12:53 PM,64.0,55.0,73,29.88,10.0,South,16.1,24.2,N/A,,Clear,190,2013-01-13 17:53:00
1:53 PM,64.9,54.0,68,29.86,10.0,South,15.0,21.9,N/A,,Clear,180,2013-01-13 18:53:00
2:53 PM,64.0,53.1,67,29.86,10.0,South,18.4,21.9,N/A,,Clear,190,2013-01-13 19:53:00
3:53 PM,64.0,53.1,67,29.87,10.0,SSW,11.5,-,0.00,,Overcast,200,2013-01-13 20:53:00
4:53 PM,63.0,53.1,70,29.87,10.0,South,9.2,-,N/A,,Overcast,180,2013-01-13 21:53:00
5:53 PM,62.1,53.1,72,29.91,10.0,WSW,6.9,-,N/A,,Overcast,250,2013-01-13 22:53:00
6:53 PM,61.0,53.1,75,29.91,10.0,WSW,6.9,-,N/A,,Overcast,240,2013-01-13 23:53:00
7:53 PM,60.1,53.1,78,29.91,10.0,West,11.5,-,0.00,Rain,Light Rain,270,2013-01-14 00:53:00
8:53 PM,57.9,54.0,87,29.89,7.0,SW,4.6,-,0.02,Rain,Light Rain,230,2013-01-14 01:53:00
9:53 PM,57.0,55.0,93,29.87,10.0,South,12.7,-,0.03,Rain,Light Rain,180,2013-01-14 02:53:00
10:53 PM,57.9,55.0,90,29.87,10.0,South,15.0,-,0.03,Rain,Light Rain,180,2013-01-14 03:53:00
11:53 PM,57.9,55.0,90,29.91,10.0,SW,10.4,-,0.02,,Overcast,220,2013-01-14 04:53:00